FW8537 Weather Reports


Display with metric or nautical units.
time (UTC)temp
F
wind
direction
speed
MPH
gust
MPH
rain 1hr
in
rain 24hr
in
rain mn
in
humidity
%
barometer
mb
20260906064001 75 255 0.0 2.0 0.00 0.04 0.00 92 1008.9
20260906063501 75 242 0.0 1.0 0.00 0.04 0.00 91 1008.9
20260906063031 75 242 0.0 2.0 0.00 0.78 0.78 91 1008.8
20260906063002 75 244 0.0 2.0 0.00 0.04 0.00 91 1008.9
20260906062501 75 212 0.0 2.0 0.00 0.04 0.00 91 1008.9
20260906062001 75 215 0.0 2.0 0.00 0.04 0.00 91 1008.9
20260906061531 75 211 0.0 3.0 0.00 0.78 0.78 91 1008.8
20260906061503 75 226 1.0 3.0 0.00 0.04 0.00 91 1008.9
20260906061001 75 215 1.0 3.0 0.00 0.04 0.00 91 1009.2
20260906060501 75 229 0.0 2.0 0.00 0.04 0.00 91 1009.2
20260906060031 74 216 0.0 1.0 0.00 0.78 0.78 91 1009.1
20260906060001 75 216 0.0 1.0 0.00 0.04 0.00 91 1009.2
20260906055501 75 202 0.0 3.0 0.00 0.04 0.00 91 1009.5
20260906055002 75 198 0.0 3.0 0.00 0.04 0.00 91 1009.5
20260906054509 74 207 0.0 1.0 0.00 0.78 0.78 91 1009.4
20260906054504 75 207 0.0 1.0 0.00 0.04 0.00 91 1009.5
20260906053956 75 207 0.0 1.0 0.00 0.04 0.00 91 1009.5
20260906053450 75 148 0.0 1.0 0.00 0.04 0.00 91 1009.5
20260906053003 74 220 0.0 1.0 0.00 0.78 0.78 91 1009.4
20260906052942 75 221 0.0 1.0 0.00 0.04 0.00 91 1009.5
20260906052439 75 221 0.0 1.0 0.00 0.04 0.00 91 1009.7
20260906052232 75 166 0.0 2.0 0.00 0.04 0.00 92 1009.7
20260906051503 74 215 0.0 2.0 0.00 0.78 0.78 92 1009.6
20260906051436 75 215 0.0 2.0 0.00 0.04 0.00 92 1009.7
20260906050935 75 201 0.0 2.0 0.00 0.04 0.00 92 1009.8
20260906050435 75 215 0.0 2.0 0.00 0.04 0.00 92 1009.8
20260906050005 74 203 0.0 1.0 0.00 0.78 0.78 92 1009.7
20260906045937 75 212 0.0 1.0 0.00 0.04 0.00 92 1009.9
20260906045436 75 119 0.0 0.0 0.00 0.04 0.00 92 1009.9
20260906044933 75 119 0.0 1.0 0.00 0.04 0.00 92 1009.9
20260906044506 75 119 0.0 1.0 0.00 0.78 0.78 92 1009.8
20260906044434 75 119 0.0 1.0 0.00 0.04 0.00 92 1010.0
20260906043934 75 140 0.0 1.0 0.00 0.04 0.00 92 1010.0
20260906043433 75 225 0.0 3.0 0.00 0.04 0.00 92 1010.0
20260906043003 74 255 0.0 3.0 0.00 0.78 0.78 92 1009.9
20260906042932 75 255 1.0 3.0 0.00 0.04 0.00 92 1010.0
20260906042729 75 226 1.0 4.0 0.00 0.04 0.00 92 1010.0
20260906041933 75 222 1.0 4.0 0.00 0.04 0.00 92 1010.0
20260906041559 74 192 1.0 3.0 0.00 0.78 0.78 92 1009.9
20260906041434 75 246 1.0 3.0 0.00 0.04 0.00 92 1010.0
20260906041224 75 226 1.0 4.0 0.00 0.04 0.00 92 1009.9
20260906040431 75 238 1.0 4.0 0.00 0.04 0.00 92 1009.9
20260906040041 74 190 0.0 4.0 0.00 0.78 0.78 92 1009.8
20260906035931 75 216 0.0 4.0 0.00 0.04 0.04 92 1009.9
20260906035431 75 215 1.0 4.0 0.00 0.04 0.04 92 1009.9
20260906034932 75 155 0.0 3.0 0.00 0.04 0.04 92 1009.9
20260906034550 75 215 0.0 3.0 0.00 0.78 0.78 93 1009.8
20260906034432 75 212 1.0 3.0 0.00 0.04 0.04 92 1009.7
20260906033930 75 225 1.0 4.0 0.00 0.04 0.04 93 1009.7
20260906033431 75 226 1.0 4.0 0.00 0.04 0.04 92 1009.7
20260906033035 75 228 0.0 4.0 0.00 0.78 0.78 92 1009.6
20260906032932 75 225 1.0 5.0 0.00 0.04 0.04 92 1009.9
20260906032414 75 206 1.0 5.0 0.00 0.04 0.04 92 1009.9
20260906031903 75 219 1.0 4.0 0.00 0.04 0.04 92 1009.9
20260906031533 75 209 0.0 2.0 0.00 0.78 0.78 92 1009.8
20260906031401 75 199 0.0 2.0 0.00 0.04 0.04 92 1009.9
20260906030900 75 127 0.0 1.0 0.00 0.04 0.04 92 1009.9
20260906030401 75 113 0.0 2.0 0.00 0.04 0.04 92 1009.9
20260906030021 75 113 0.0 2.0 0.00 0.78 0.78 93 1009.8
20260906025900 75 113 0.0 2.0 0.00 0.04 0.04 93 1009.9
20260906025401 75 215 0.0 1.0 0.00 0.04 0.04 92 1009.9
20260906024903 75 215 0.0 1.0 0.00 0.04 0.04 92 1009.9
20260906024505 74 215 0.0 1.0 0.00 0.78 0.78 92 1009.8
20260906024402 75 215 0.0 1.0 0.00 0.04 0.04 92 1010.0
20260906023902 75 215 0.0 1.0 0.00 0.04 0.04 92 1010.0
20260906023403 75 215 0.0 0.0 0.00 0.04 0.04 92 1010.0
20260906023003 74 215 0.0 1.0 0.00 0.78 0.78 92 1009.9
20260906022903 75 215 0.0 2.0 0.00 0.04 0.04 92 1009.9
20260906022401 75 215 0.0 2.0 0.01 0.04 0.04 92 1009.9
20260906022150 75 173 0.0 3.0 0.01 0.04 0.04 92 1009.9
20260906021651 75 138 0.0 3.0 0.01 0.04 0.04 92 1009.9
20260906021616 75 138 0.0 3.0 0.01 0.78 0.78 92 1009.8
20260906020903 75 141 0.0 3.0 0.02 0.04 0.04 92 1009.9
20260906020403 75 221 0.0 3.0 0.02 0.04 0.04 92 1009.9
20260906020101 75 236 0.0 4.0 0.02 0.78 0.78 92 1009.8
20260906020002 75 242 0.0 4.0 0.02 0.78 0.78 92 1009.8
20260906015905 75 242 1.0 4.0 0.02 0.02 0.04 92 1009.9
20260906015402 75 213 1.0 4.0 0.03 0.02 0.04 92 1009.9
20260906014902 75 265 1.0 4.0 0.03 0.02 0.04 92 1009.9
20260906014552 75 244 2.0 4.0 0.03 0.78 0.78 92 1009.8
20260906014403 75 217 1.0 4.0 0.03 0.02 0.04 92 1010.0
20260906013902 75 217 1.0 4.0 0.03 0.02 0.04 92 1010.0
20260906013401 75 196 1.0 3.0 0.03 0.02 0.04 92 1010.0
20260906013039 75 215 1.0 2.0 0.03 0.78 0.78 92 1009.9
20260906012901 75 220 0.0 2.0 0.03 0.02 0.04 92 1010.1
20260906012402 75 193 0.0 3.0 0.02 0.02 0.03 92 1010.1
20260906011902 75 134 1.0 3.0 0.01 0.02 0.03 92 1010.1
20260906011531 75 131 0.0 5.0 0.02 0.77 0.77 92 1010.0
20260906011401 75 113 2.0 5.0 0.01 0.02 0.03 92 1010.5
20260906010902 75 135 3.0 7.0 0.01 0.02 0.02 92 1010.5
20260906010655 75 146 3.0 7.0 0.01 0.02 0.02 92 1010.5
20260906010020 75 128 4.0 7.0 0.01 0.76 0.76 92 1010.3
20260906005859 75 140 3.0 6.0 0.00 0.01 0.02 92 1010.8
20260906005359 76 153 5.0 10.0 0.00 0.01 0.01 92 1010.8
20260906004859 76 107 5.0 10.0 0.00 0.01 0.01 91 1010.8
20260906004503 75 138 4.0 10.0 0.00 0.75 0.75 91 1010.6
20260906004358 76 126 5.0 10.0 0.00 0.01 0.01 91 1010.5
20260906003859 76 132 5.0 10.0 0.00 0.01 0.01 91 1010.5
20260906003358 77 128 4.0 8.0 0.00 0.01 0.01 91 1010.5
20260906003004 77 121 5.0 8.0 0.00 0.75 0.75 91 1010.4
20260906002859 77 131 3.0 8.0 0.00 0.01 0.01 91 1010.4
20260906002656 77 144 3.0 0.0 0.00 0.01 0.01 90 1010.4
20260906001733 78 221 3.0 8.0 0.00 0.01 0.01 89 1010.4
20260906001605 78 178 3.0 9.0 0.00 0.75 0.75 89 1010.3
20260906001232 78 138 2.0 9.0 0.00 0.01 0.01 89 1010.1
20260906001031 78 164 1.0 9.0 0.00 0.01 0.01 89 1010.1
20260906000234 79 109 2.0 5.0 0.00 0.01 0.01 89 1010.1
20260906000040 78 113 2.0 5.0 0.00 0.75 0.75 89 1010.0
20260905235730 78 125 2.0 5.0 0.00 0.01 0.01 89 1010.2
20260905235231 78 100 2.0 5.0 0.00 0.01 0.01 90 1010.2
20260905234812 78 56 5.0 13.0 0.00 0.01 0.01 92 1010.5
20260905234801 78 46 3.0 11.0 0.00 0.01 0.01 91 1010.2
20260905233730 78 28 5.0 13.0 0.00 0.01 0.01 93 1010.5
20260905233231 78 329 4.0 11.0 0.00 0.01 0.01 93 1010.5
20260905233015 78 317 4.0 11.0 0.00 0.75 0.75 93 1010.4
20260905232730 78 315 2.0 11.0 0.00 0.01 0.01 93 1009.4
20260905232232 78 74 1.0 2.0 0.00 0.01 0.01 93 1009.4
20260905231729 78 74 2.0 2.0 0.00 0.01 0.01 93 1009.4
20260905231510 77 101 1.0 2.0 0.00 0.75 0.75 93 1009.2
20260905231229 78 105 1.0 2.0 0.00 0.01 0.01 93 1009.4
20260905230730 78 105 2.0 5.0 0.00 0.01 0.01 93 1009.4
20260905230229 78 110 2.0 5.0 0.00 0.01 0.01 94 1009.4
20260905230004 77 120 2.0 5.0 0.00 0.75 0.75 93 1009.3
20260905225730 77 125 3.0 5.0 0.00 0.01 0.01 93 1009.4
20260905225230 77 86 4.0 8.0 0.00 0.01 0.01 93 1009.4
20260905225026 77 119 5.0 10.0 0.00 0.01 0.01 93 1009.4
20260905224554 77 123 5.0 10.0 0.00 0.75 0.75 93 1009.3
20260905224229 77 101 4.0 10.0 0.00 0.01 0.01 94 1009.8
20260905223729 77 105 3.0 8.0 0.00 0.01 0.01 93 1009.8
20260905223230 77 90 3.0 7.0 0.00 0.01 0.01 94 1009.8
20260905223048 77 92 3.0 6.0 0.00 0.75 0.75 93 1009.7
20260905222730 77 78 3.0 5.0 0.00 0.01 0.01 94 1008.9
20260905222231 77 103 2.0 5.0 0.00 0.01 0.01 94 1008.9
20260905221731 77 114 1.0 3.0 0.00 0.01 0.01 94 1008.9
20260905221534 77 101 0.0 3.0 0.00 0.75 0.75 94 1008.8
20260905221521 77 98 1.0 3.0 0.00 0.01 0.01 94 1008.8
20260905220733 77 86 1.0 3.0 0.00 0.01 0.01 93 1008.8
20260905220229 77 101 0.0 2.0 0.00 0.01 0.01 94 1008.8
20260905220024 77 82 0.0 2.0 0.00 0.75 0.75 94 1008.7
20260905215730 77 64 1.0 5.0 0.00 0.01 0.01 93 1009.0
20260905215228 77 69 1.0 5.0 0.01 0.01 0.01 94 1009.0
20260905214728 77 100 2.0 9.0 0.01 0.01 0.01 93 1009.0
20260905214559 77 109 0.0 9.0 0.01 0.75 0.75 93 1008.9
20260905214229 77 80 4.0 9.0 0.01 0.01 0.01 93 1009.6
20260905214019 77 110 4.0 8.0 0.01 0.01 0.01 94 1009.6
20260905213226 77 105 3.0 6.0 0.01 0.01 0.01 94 1009.6
20260905213033 76 109 4.0 6.0 0.20 0.75 0.75 94 1009.4
20260905212725 77 82 2.0 5.0 0.01 0.01 0.01 94 1009.5
20260905212221 77 126 1.0 5.0 0.01 0.01 0.01 94 1009.5
20260905211722 76 113 1.0 4.0 0.01 0.01 0.01 94 1009.5
20260905211531 75 318 0.0 2.0 0.75 0.75 0.75 94 1009.4
20260905211223 75 348 1.0 3.0 0.01 0.01 0.01 93 1009.5
20260905211012 74 17 1.0 3.0 0.01 0.01 0.01 93 1009.5
20260905210232 74 75 1.0 2.0 0.01 0.01 0.01 93 1009.5
20260905210030 74 75 0.0 2.0 0.75 0.75 0.75 93 1009.3
20260905205727 74 0.0 0.0 0.00 0.00 0.00 92
20260905205633 74 48 2.0 6.0 0.00 0.00 0.00 92 1009.4
20260905202737 79 39 9.0 24.0 0.39 0.39 0.33 84 1008.9
20260905202237 86 343 5.0 21.0 0.03 0.03 0.03 79 1008.9
20260905201738 88 329 6.0 14.0 0.00 0.00 0.00 82 1008.9
20260905201533 88 74 6.0 14.0 0.00 0.00 0.00 82 1008.7
20260905201238 89 131 7.0 14.0 0.00 0.00 0.00 82 1008.3
20260905200738 89 121 10.0 16.0 0.00 0.00 0.00 81 1008.3
20260905200237 89 97 11.0 16.0 0.00 0.00 0.00 81 1008.3
20260905200054 89 80 10.0 16.0 0.00 0.00 0.00 81 1008.1
20260905195738 89 146 9.0 15.0 0.00 0.00 0.00 81 1008.9
20260905195236 89 111 9.0 14.0 0.00 0.00 0.00 80 1008.9
20260905194738 89 105 9.0 15.0 0.00 0.00 0.00 80 1008.9
20260905194505 89 76 10.0 14.0 0.00 0.00 0.00 81 1008.7
20260905194237 90 83 9.0 17.0 0.00 0.00 0.00 81 1009.0
20260905193738 90 90 9.0 17.0 0.00 0.00 0.00 81 1009.0
20260905193533 90 106 9.0 16.0 0.00 0.00 0.00 80 1009.0
20260905193034 90 113 9.0 16.0 0.00 0.00 0.00 81 1009.2
20260905193027 89 118 7.0 15.0 0.00 0.00 0.00 81 1008.9
20260905192236 90 71 7.0 14.0 0.00 0.00 0.00 80 1009.2
20260905191737 90 72 8.0 13.0 0.00 0.00 0.00 80 1009.2
20260905191505 90 94 7.0 12.0 0.00 0.00 0.00 79 1009.1
20260905191237 91 133 7.0 13.0 0.00 0.00 0.00 78 1009.3
20260905190736 94 111 3.0 13.0 0.00 0.00 0.00 74 1009.3
20260905190237 97 89 0.0 3.0 0.00 0.00 0.00 63 1009.3
20260905190031 97 108 1.0 3.0 0.00 0.00 0.00 61 1009.0
20260905190026 96 212 0.0 3.0 0.00 0.00 0.00 62 1009.2
20260905185233 97 238 1.0 3.0 0.00 0.00 0.00 61 1009.0
20260905184729 96 216 1.0 3.0 0.00 0.00 0.00 65 1009.0
20260905184533 96 288 1.0 3.0 0.00 0.00 0.00 64 1008.9
20260905184530 96 246 1.0 3.0 0.00 0.00 0.00 66 1009.4
20260905183730 94 219 1.0 5.0 0.00 0.00 0.00 69 1009.4
20260905183522 94 305 2.0 5.0 0.00 0.00 0.00 66 1009.4
20260905183049 94 300 1.0 5.0 0.00 0.00 0.00 66 1009.2
20260905182730 95 13 2.0 5.0 0.00 0.00 0.00 64 1009.4
20260905182229 96 223 2.0 5.0 0.00 0.00 0.00 66 1009.4
20260905181730 96 243 2.0 7.0 0.00 0.00 0.00 64 1009.4
20260905181538 95 321 1.0 7.0 0.00 0.00 0.00 66 1009.3
20260905181521 96 281 2.0 7.0 0.00 0.00 0.00 66 1009.6
20260905181019 95 286 2.0 6.0 0.00 0.00 0.00 64 1009.6
20260905180236 95 308 2.0 6.0 0.00 0.00 0.00 68 1009.6
20260905180030 95 274 1.0 6.0 0.00 0.00 0.00 67 1009.5
20260905175732 95 246 1.0 6.0 0.00 0.00 0.00 67 1009.8
20260905175230 96 260 1.0 6.0 0.00 0.00 0.00 66 1009.8
20260905175017 96 276 2.0 7.0 0.00 0.00 0.00 65 1009.8
20260905174504 96 295 1.0 7.0 0.00 0.00 0.00 65 1009.7
20260905174239 96 349 2.0 7.0 0.00 0.00 0.00 64 1009.9
20260905173730 97 19 2.0 5.0 0.00 0.00 0.00 64 1009.9
20260905173230 96 251 1.0 6.0 0.00 0.00 0.00 65 1009.9
20260905173002 95 180 0.0 6.0 0.00 0.00 0.00 67 1009.8
20260905172730 95 254 1.0 6.0 0.00 0.00 0.00 66 1010.1
20260905172222 94 0 1.0 5.0 0.00 0.00 0.00 67 1010.1
20260905172017 93 246 2.0 4.0 0.00 0.00 0.00 70 1010.1
20260905171550 93 316 1.0 4.0 0.00 0.00 0.00 69 1010.0
20260905171223 93 275 2.0 4.0 0.00 0.00 0.00 69 1010.4
20260905170723 94 211 2.0 5.0 0.00 0.00 0.00 69 1010.4
20260905170222 94 269 2.0 6.0 0.00 0.00 0.00 67 1010.4
20260905170039 94 45 1.0 6.0 0.00 0.00 0.00 68 1010.2
20260905165720 95 271 2.0 6.0 0.00 0.00 0.00 69 1010.5
20260905165219 96 281 2.0 8.0 0.00 0.00 0.00 70 1010.5
20260905165001 95 246 3.0 8.0 0.00 0.00 0.00 69 1010.5
20260905164529 94 272 2.0 8.0 0.00 0.00 0.00 70 1010.3
20260905164219 94 302 2.0 8.0 0.00 0.00 0.00 71 1010.6
20260905163721 94 267 1.0 5.0 0.00 0.00 0.00 69 1010.6
20260905163218 94 223 2.0 5.0 0.00 0.00 0.00 73 1010.6
20260905163011 93 251 2.0 5.0 0.00 0.00 0.00 72 1010.4
20260905162717 94 321 2.0 5.0 0.00 0.00 0.00 71 1011.0
20260905162215 94 210 2.0 6.0 0.00 0.00 0.00 70 1011.0
20260905161709 94 311 2.0 6.0 0.00 0.00 0.00 70 1011.0
20260905161504 93 252 2.0 6.0 0.00 0.00 0.00 70 1010.9
20260905161207 94 223 2.0 6.0 0.00 0.00 0.00 72 1011.0
20260905160956 93 312 2.0 6.0 0.00 0.00 0.00 71 1011.0
20260905160206 93 221 3.0 7.0 0.00 0.00 0.00 73 1011.0
20260905160004 92 216 2.0 7.0 0.00 0.00 0.00 73 1010.9
20260905155702 93 273 3.0 7.0 0.00 0.00 0.00 72 1011.2
20260905155201 92 221 2.0 7.0 0.00 0.00 0.00 72 1011.2
20260905154701 92 240 3.0 8.0 0.00 0.00 0.00 75 1011.2
20260905154556 91 203 1.0 8.0 0.00 0.00 0.00 76 1011.1
20260905154202 91 255 3.0 10.0 0.00 0.00 0.00 76 1011.5
20260905153702 92 236 3.0 10.0 0.00 0.00 0.00 75 1011.5
20260905153200 92 221 2.0 8.0 0.00 0.00 0.00 75 1011.5
20260905153037 91 206 2.0 7.0 0.00 0.00 0.00 76 1011.3
20260905152954 92 240 2.0 8.0 0.00 0.00 0.00 76 1011.5
20260905152203 91 247 3.0 8.0 0.00 0.00 0.00 78 1011.5
20260905151703 91 227 3.0 8.0 0.00 0.00 0.00 77 1011.5
20260905151529 91 218 3.0 7.0 0.00 0.00 0.00 77 1011.4
20260905151202 91 178 2.0 7.0 0.00 0.00 0.00 77 1011.5
20260905150949 91 248 2.0 6.0 0.00 0.00 0.00 78 1011.5
20260905150201 91 223 2.0 6.0 0.00 0.00 0.00 80 1011.5
20260905150006 90 182 1.0 6.0 0.00 0.00 0.00 80 1011.4
20260905145700 90 230 2.0 7.0 0.00 0.00 0.00 79 1011.5
20260905145203 89 234 2.0 7.0 0.00 0.00 0.00 80 1011.5
20260905144950 89 279 2.0 6.0 0.00 0.00 0.00 79 1011.5
20260905144507 89 296 1.0 6.0 0.00 0.00 0.00 79 1011.4
20260905144202 89 242 2.0 7.0 0.00 0.00 0.00 81 1011.5
20260905143703 88 213 2.0 7.0 0.00 0.00 0.00 82 1011.5
20260905143202 88 183 3.0 8.0 0.00 0.00 0.00 83 1011.5
20260905143002 87 247 2.0 7.0 0.00 0.00 0.00 82 1011.4
20260905142951 88 234 2.0 8.0 0.00 0.00 0.00 82 1011.6
20260905142204 88 214 2.0 6.0 0.00 0.00 0.00 83 1011.6
20260905141703 88 242 2.0 6.0 0.00 0.00 0.00 84 1011.6
20260905141507 87 220 1.0 6.0 0.00 0.00 0.00 85 1011.5
20260905141203 87 215 3.0 6.0 0.00 0.00 0.00 84 1011.5
20260905140701 87 225 2.0 6.0 0.00 0.00 0.00 85 1011.5
20260905140200 87 253 1.0 6.0 0.00 0.00 0.00 86 1011.5
20260905140043 86 213 1.0 6.0 0.00 0.00 0.00 86 1011.4
20260905135702 86 198 1.0 5.0 0.00 0.00 0.00 86 1011.5
20260905135202 86 254 2.0 5.0 0.00 0.00 0.00 86 1011.5
20260905134702 85 143 1.0 6.0 0.00 0.00 0.00 87 1011.5
20260905134540 85 219 0.0 6.0 0.00 0.00 0.00 87 1011.4
20260905134201 85 224 1.0 6.0 0.00 0.00 0.00 87 1011.5
20260905133949 85 231 1.0 5.0 0.00 0.00 0.00 88 1011.5
20260905133432 84 233 1.0 5.0 0.00 0.00 0.00 88 1011.5
20260905133014 84 248 2.0 5.0 0.00 0.00 0.00 88 1011.3
20260905132630 84 152 0.0 2.0 0.00 0.00 0.00 89 1011.5
20260905132421 83 225 0.0 2.0 0.00 0.00 0.00 89 1011.5
20260905131631 83 216 0.0 3.0 0.00 0.00 0.00 89 1011.5
20260905131503 83 217 0.0 3.0 0.00 0.00 0.00 89 1011.4
20260905131415 83 246 1.0 3.0 0.00 0.00 0.00 89 1011.5
20260905130629 83 217 1.0 3.0 0.00 0.00 0.00 89 1011.5
20260905130130 83 223 0.0 2.0 0.00 0.00 0.00 89 1011.5
20260905130002 82 221 0.0 2.0 0.00 0.00 0.00 89 1011.3
20260905125630 83 221 0.0 1.0 0.00 0.00 0.00 90 1011.5
20260905125423 82 221 1.0 2.0 0.00 0.00 0.00 90 1011.5
20260905124629 82 221 0.0 2.0 0.00 0.00 0.00 90 1011.5
20260905124515 81 220 1.0 2.0 0.00 0.00 0.00 90 1011.4
20260905124130 82 219 0.0 2.0 0.00 0.00 0.00 90 1011.4
20260905123919 81 220 0.0 2.0 0.00 0.00 0.00 91 1011.4
20260905123128 81 217 0.0 2.0 0.00 0.00 0.00 91 1011.4
20260905123014 80 217 0.0 2.0 0.00 0.00 0.00 92 1011.3
20260905122632 80 217 0.0 2.0 0.00 0.00 0.00 92 1011.5
20260905122129 80 219 0.0 1.0 0.00 0.00 0.00 92 1011.5
20260905121630 79 219 0.0 1.0 0.00 0.00 0.00 92 1011.5
20260905121503 79 219 0.0 1.0 0.00 0.00 0.00 92 1011.4
20260905121130 79 219 0.0 0.0 0.00 0.00 0.00 92 1011.2
20260905120628 79 219 0.0 0.0 0.00 0.00 0.00 93 1011.2
20260905120516 78 219 0.0 1.0 0.00 0.00 0.00 92 1011.0
20260905120202 78 219 0.0 0.0 0.00 0.00 0.00 92 1011.2
20260905120142 78 219 0.0 0.0 0.00 0.00 0.00 92 1011.1
20260905115130 78 219 0.0 1.0 0.00 0.00 0.00 92 1011.0
20260905114919 78 219 0.0 0.0 0.00 0.00 0.00 92 1011.0
20260905114501 77 219 0.0 0.0 0.00 0.00 0.00 92 1010.9
20260905114129 78 219 0.0 0.0 0.00 0.00 0.00 92 1011.0
20260905113628 77 219 0.0 0.0 0.00 0.00 0.00 92 1011.0
20260905113205 77 219 0.0 0.0 0.00 0.00 0.00 92 1010.9
20260905113154 77 219 0.0 0.0 0.00 0.00 0.00 92 1011.0
20260905113130 77 219 0.0 0.0 0.00 0.00 0.00 92 1010.8
20260905112131 77 219 0.0 0.0 0.00 0.00 0.00 92 1010.9
20260905111630 77 219 0.0 0.0 0.00 0.00 0.00 92 1010.9
20260905111536 77 219 0.0 0.0 0.00 0.00 0.00 92 1010.7
20260905111415 77 219 0.0 0.0 0.00 0.00 0.00 92 1010.7
20260905110630 77 219 0.0 0.0 0.00 0.00 0.00 92 1010.7
20260905110131 77 219 0.0 0.0 0.00 0.00 0.00 92 1010.7
20260905110034 77 219 0.0 0.0 0.00 0.00 0.00 92 1010.5
20260905105632 77 219 0.0 0.0 0.00 0.00 0.00 92 1010.5
20260905105422 77 219 0.0 0.0 0.00 0.00 0.00 92 1010.5
20260905104630 78 219 0.0 0.0 0.00 0.00 0.00 92 1010.5
20260905104518 77 219 0.0 0.0 0.00 0.00 0.00 92 1010.4
20260905104216 78 219 0.0 0.0 0.00 0.00 0.00 92 1010.4
20260905104202 78 219 0.0 0.0 0.00 0.00 0.00 92 1010.4
20260905103420 78 219 0.0 0.0 0.00 0.00 0.00 92 1010.4
20260905103007 77 219 0.0 0.0 0.00 0.00 0.00 92 1010.3
20260905102629 78 219 0.0 0.0 0.00 0.00 0.00 92 1010.5
20260905102420 78 219 0.0 0.0 0.00 0.00 0.00 92 1010.5
20260905101630 78 219 0.0 0.0 0.00 0.00 0.00 91 1010.5
20260905101505 77 219 0.0 0.0 0.00 0.00 0.00 91 1010.3
20260905101128 78 219 0.0 0.0 0.00 0.00 0.00 91 1010.4
20260905100630 78 219 0.0 0.0 0.00 0.00 0.00 91 1010.4
20260905100128 78 219 0.0 0.0 0.00 0.00 0.00 91 1010.4
20260905100005 77 219 0.0 0.0 0.00 0.00 0.00 91 1010.3
20260905095630 78 219 0.0 0.0 0.00 0.00 0.00 91 1010.5
20260905095129 78 219 0.0 0.0 0.00 0.00 0.00 91 1010.5
20260905094629 78 219 0.0 0.0 0.00 0.00 0.00 91 1010.5
20260905094505 77 219 0.0 0.0 0.00 0.00 0.00 91 1010.4
20260905094130 78 219 0.0 0.0 0.00 0.00 0.00 91 1010.5
20260905093629 78 219 0.0 0.0 0.00 0.00 0.00 91 1010.5
20260905093131 78 219 0.0 0.0 0.00 0.00 0.00 91 1010.5
20260905093032 78 219 0.0 0.0 0.00 0.00 0.00 91 1010.3
20260905092630 78 219 0.0 0.0 0.00 0.00 0.00 91 1010.4
20260905092130 78 219 0.0 0.0 0.00 0.00 0.00 91 1010.4
20260905091629 78 219 0.0 1.0 0.00 0.00 0.00 91 1010.4
20260905091510 78 219 0.0 1.0 0.00 0.00 0.00 91 1010.2
20260905091130 78 219 0.0 1.0 0.00 0.00 0.00 91 1010.4
20260905090927 78 219 0.0 0.0 0.00 0.00 0.00 91 1010.4
20260905090129 78 219 0.0 0.0 0.00 0.00 0.00 91 1010.4
20260905090004 78 219 0.0 0.0 0.00 0.00 0.00 91 1010.3
20260905085630 78 219 0.0 1.0 0.00 0.00 0.00 91 1010.4
20260905085421 78 219 0.0 1.0 0.00 0.00 0.00 91 1010.4
20260905084630 78 219 0.0 1.0 0.00 0.00 0.00 91 1010.4
20260905084504 78 219 0.0 1.0 0.00 0.00 0.00 91 1010.3
20260905084422 78 219 0.0 1.0 0.00 0.00 0.00 91 1010.3
20260905083630 78 219 0.0 0.0 0.00 0.00 0.00 91 1010.3
20260905083129 78 219 0.0 1.0 0.00 0.00 0.00 91 1010.3
20260905083003 78 219 0.0 1.0 0.00 0.00 0.00 91 1010.2
20260905082629 78 219 0.0 1.0 0.00 0.00 0.00 91 1010.4
20260905082130 78 219 0.0 0.0 0.00 0.00 0.00 90 1010.4
20260905081629 78 219 0.0 0.0 0.00 0.00 0.00 90 1010.4
20260905081505 78 219 0.0 0.0 0.00 0.00 0.00 90 1010.3
20260905081130 78 219 0.0 0.0 0.00 0.00 0.00 90 1010.4
20260905080629 78 219 0.0 0.0 0.00 0.00 0.00 90 1010.4
20260905080140 78 219 0.0 0.0 0.00 0.00 0.00 90 1010.3
20260905080130 79 219 0.0 0.0 0.00 0.00 0.00 90 1010.4
20260905075715 79 219 0.0 0.0 0.00 0.00 0.00 90 1010.5
20260905075659 79 219 0.0 0.0 0.00 0.00 0.00 90 1010.5
20260905074920 79 219 0.0 1.0 0.00 0.00 0.00 90 1010.5
20260905074539 78 219 0.0 1.0 0.00 0.00 0.00 90 1010.3
20260905074128 79 219 0.0 1.0 0.00 0.00 0.00 90 1010.5
20260905073630 79 219 0.0 0.0 0.00 0.00 0.00 90 1010.5
20260905073130 79 219 0.0 0.0 0.00 0.00 0.00 90 1010.5
20260905073032 79 219 0.0 0.0 0.00 0.00 0.00 90 1010.4
20260905072630 79 219 0.0 0.0 0.00 0.00 0.00 90 1010.4
20260905072131 79 219 0.0 0.0 0.00 0.00 0.00 90 1010.4
20260905071629 79 219 0.0 0.0 0.00 0.00 0.00 90 1010.4
20260905071520 79 219 0.0 0.0 0.00 0.00 0.00 90 1010.3
20260905071118 79 219 0.0 0.0 0.00 0.00 0.00 89 1010.5
20260905070604 80 219 0.0 1.0 0.00 0.00 0.00 90 1010.5
20260905070005 79 219 0.0 2.0 0.00 0.00 0.00 89 1010.3
20260905065603 80 219 0.0 2.0 0.00 0.00 0.00 90 1010.5
20260905065348 80 216 0.0 2.0 0.00 0.00 0.00 90 1010.5